| time (UTC) | temp F | wind direction | speed MPH | gust MPH | rain 1hr in | rain 24hr in | rain mn in | humidity % | barometer mb |
| 20260505024545 | 69 | 213 | 0.0 | 0.0 | 0.00 | 0.00 | 0.00 | 45 | 1009.3 |
| 20260505023007 | 69 | 194 | 0.0 | 0.0 | 0.00 | 0.00 | 0.00 | 44 | 1009.3 |
| 20260505021551 | 69 | 189 | 0.0 | 0.0 | 0.00 | 0.00 | 0.00 | 44 | 1009.2 |
| 20260505020040 | 69 | 136 | 0.0 | 0.0 | 0.00 | 0.00 | 0.00 | 43 | 1009.3 |
| 20260505014509 | 69 | 171 | 0.0 | 0.0 | 0.00 | 0.00 | 0.00 | 43 | 1009.1 |
| 20260505013042 | 70 | 200 | 0.0 | 0.0 | 0.00 | 0.00 | 0.00 | 43 | 1009.1 |
| 20260505011602 | 70 | 217 | 0.0 | 0.0 | 0.00 | 0.00 | 0.00 | 42 | 1008.8 |
| 20260505010027 | 71 | 148 | 0.0 | 0.0 | 0.00 | 0.00 | 0.00 | 41 | 1008.7 |
| 20260505003021 | 73 | 147 | 0.0 | 0.0 | 0.00 | 0.00 | 0.00 | 39 | 1008.6 |
| 20260505000041 | 73 | 187 | 0.0 | 0.0 | 0.00 | 0.00 | 0.00 | 37 | 1008.6 |
| 20260504234603 | 74 | 209 | 0.0 | 0.0 | 0.00 | 0.00 | 0.00 | 36 | 1008.5 |
| 20260504233019 | 75 | 193 | 0.0 | 0.0 | 0.00 | 0.00 | 0.00 | 35 | 1008.5 |
| 20260504231541 | 75 | 106 | 0.0 | 0.0 | 0.00 | 0.00 | 0.00 | 34 | 1008.4 |
| 20260504230053 | 75 | 186 | 0.0 | 0.0 | 0.00 | 0.00 | 0.00 | 34 | 1008.4 |
| 20260504224524 | 76 | 108 | 0.0 | 0.0 | 0.00 | 0.00 | 0.00 | 33 | 1008.5 |
| 20260504223009 | 77 | 127 | 0.0 | 0.0 | 0.00 | 0.00 | 0.00 | 32 | 1008.4 |
| 20260504221548 | 77 | 153 | 0.0 | 4.0 | 0.00 | 0.00 | 0.00 | 31 | 1008.4 |
| 20260504220107 | 78 | 201 | 0.0 | 0.0 | 0.00 | 0.00 | 0.00 | 31 | 1008.3 |
| 20260504214630 | 78 | 132 | 0.0 | 0.0 | 0.00 | 0.00 | 0.00 | 30 | 1008.4 |
| 20260504213008 | 79 | 117 | 0.0 | 0.0 | 0.00 | 0.00 | 0.00 | 29 | 1008.4 |
| 20260504210059 | 79 | 163 | 0.0 | 0.0 | 0.00 | 0.00 | 0.00 | 29 | 1008.4 |
| 20260504204502 | 79 | 137 | 0.0 | 0.0 | 0.00 | 0.00 | 0.00 | 29 | 1008.5 |
| 20260504203005 | 79 | 192 | 0.0 | 0.0 | 0.00 | 0.00 | 0.00 | 28 | 1008.8 |
| 20260504194558 | 78 | 133 | 0.0 | 0.0 | 0.00 | 0.00 | 0.00 | 31 | 1009.3 |
| 20260504193104 | 78 | 207 | 0.0 | 0.0 | 0.00 | 0.00 | 0.00 | 30 | 1009.6 |
| 20260504191547 | 78 | 161 | 0.0 | 0.0 | 0.00 | 0.00 | 0.00 | 31 | 1009.9 |
| 20260504190052 | 78 | 88 | 0.0 | 0.0 | 0.00 | 0.00 | 0.00 | 31 | 1010.2 |
| 20260504183112 | 77 | 169 | 0.0 | 0.0 | 0.00 | 0.00 | 0.00 | 32 | 1010.6 |
| 20260504181543 | 76 | 168 | 0.0 | 0.0 | 0.00 | 0.00 | 0.00 | 34 | 1010.9 |
| 20260504174604 | 75 | 211 | 0.0 | 0.0 | 0.00 | 0.00 | 0.00 | 33 | 1011.2 |
| 20260504171607 | 75 | 127 | 0.0 | 0.0 | 0.00 | 0.00 | 0.00 | 32 | 1011.7 |
| 20260504170113 | 74 | 108 | 0.0 | 0.0 | 0.00 | 0.00 | 0.00 | 35 | 1011.9 |
| 20260504160105 | 73 | 150 | 0.0 | 0.0 | 0.00 | 0.00 | 0.00 | 33 | 1012.6 |
| 20260504150118 | 69 | 165 | 0.0 | 0.0 | 0.00 | 0.00 | 0.00 | 36 | 1013.0 |
| 20260504081518 | 47 | 237 | 0.0 | 0.0 | 0.00 | 0.00 | 0.00 | 81 | 1014.8 |
| 20260504060109 | 44 | 237 | 0.0 | 0.0 | 0.00 | 0.00 | 0.00 | 81 | 1015.2 |
| 20260504044653 | 43 | 237 | 0.0 | 0.0 | 0.00 | 0.00 | 0.00 | 74 | 1015.3 |
| 20260504043034 | 43 | 237 | 0.0 | 0.0 | 0.00 | 0.00 | 0.00 | 72 | 1015.3 |
| 20260504041628 | 44 | 237 | 0.0 | 0.0 | 0.00 | 0.00 | 0.00 | 70 | 1015.2 |
| 20260504040123 | 44 | 237 | 0.0 | 0.0 | 0.00 | 0.00 | 0.00 | 69 | 1015.3 |
| 20260504033018 | 45 | 237 | 0.0 | 0.0 | 0.00 | 0.00 | 0.00 | 66 | 1015.1 |
| 20260504031552 | 46 | 237 | 0.0 | 0.0 | 0.00 | 0.00 | 0.00 | 65 | 1015.0 |
| 20260504030032 | 46 | 237 | 0.0 | 0.0 | 0.00 | 0.00 | 0.00 | 64 | 1014.9 |